Starlink 31001

operational
NORAD ID: 58527 Int'l Des: 2023-191 Owner: SPXS Country: US Constellation: starlink
LEOCIRCULAR

About Starlink 31001

Description loading...

Live Position

Loading 3D Globe...

Upcoming Passes

Altitude History

Altitude vs Time

uPlot chart will show altitude changes over time

Two-Line Element Set

1 58527U 23191V 25257.51128372 -.00000585 00000-0 -28233-4 0 9995
2 58527 43.0052 342.8421 0001020 275.0827 84.9899 15.02511082 98943
Epoch: Sep 14, 2025 • Age: 21 hours

Current Status

Altitude 558.5 km
Velocity 7.58 km/s
Sub-Earth Point 8.99°N, 7.39°E
Launch Date Dec 7, 2023
Age 1.7 years
Type internet

Technical Details

Classification Payload
Mass 730.00 kg
Dry Mass 700.00 kg
Total Mass 730.00 kg
Length 0.30 m
Diameter 4.10 m
Span 29.00 m
Shape Box + pan
Manufacturer SPXS
Bus Type Starlink V2M
Phase Status In Orbit
Owner/State SPXS/US

Large Constellations

Loading constellations...